WB0VGI-1 Weather Reports


Display with metric or nautical units.
time (UTC)temp
F
wind
direction
speed
MPH
gust
MPH
rain 1hr
in
rain 24hr
in
rain mn
in
humidity
%
barometer
mb
20260507092705 37 208 4.0 4.0 0.00 0.00 0.00 73 1017.9
20260507090705 37 205 4.0 4.0 0.00 0.00 0.00 72 1017.9
20260507084705 37 197 3.0 3.0 0.00 0.00 0.00 72 1017.8
20260507082705 38 194 4.0 4.0 0.00 0.00 0.00 72 1017.7
20260507080705 38 198 3.0 3.0 0.00 0.00 0.00 70 1017.6
20260507074705 39 202 2.0 2.0 0.00 0.00 0.00 68 1017.7
20260507072705 39 180 2.0 2.0 0.00 0.00 0.00 67 1017.9
20260507070705 39 206 3.0 3.0 0.00 0.00 0.00 67 1018.0
20260507064705 39 220 3.0 3.0 0.00 0.00 0.00 66 1018.1
20260507062705 39 234 3.0 3.0 0.00 0.00 0.00 66 1018.3
20260507060705 40 223 2.0 2.0 0.00 0.00 0.00 66 1018.4
20260507054705 40 233 3.0 3.0 0.00 0.00 0.00 65 1018.5
20260507052705 40 229 3.0 3.0 0.00 0.00 0.00 65 1018.6
20260507050705 40 226 3.0 3.0 0.00 0.00 0.00 65 1018.7
20260507044705 40 230 2.0 2.0 0.00 0.00 0.00 64 1018.8
20260507042705 40 223 3.0 3.0 0.00 0.00 0.00 63 1018.9
20260507040705 41 238 3.0 3.0 0.00 0.00 0.00 62 1019.0
20260507034705 41 229 2.0 2.0 0.00 0.00 0.00 62 1019.0
20260507032705 41 239 3.0 3.0 0.00 0.00 0.00 61 1019.1
20260507030705 41 227 3.0 3.0 0.00 0.00 0.00 60 1019.2
20260507024705 41 226 3.0 3.0 0.00 0.00 0.00 59 1019.2
20260507022705 42 206 3.0 3.0 0.00 0.00 0.00 59 1019.1
20260507020705 42 217 3.0 3.0 0.00 0.00 0.00 58 1019.0
20260507014705 42 227 3.0 3.0 0.00 0.00 0.00 57 1019.0
20260507012705 42 233 3.0 3.0 0.00 0.00 0.00 57 1018.9
20260507010705 43 239 3.0 3.0 0.00 0.00 0.00 55 1019.0
20260507004705 43 235 5.0 5.0 0.00 0.00 0.00 55 1019.2
20260507002705 43 245 5.0 5.0 0.00 0.00 0.00 54 1019.2
20260507000705 43 248 6.0 6.0 0.00 0.00 0.00 53 1019.2
20260506234705 44 248 5.0 5.0 0.00 0.00 0.00 53 1019.3
20260506232707 44 263 5.0 5.0 0.00 0.00 0.00 53 1019.4
20260506230706 44 246 5.0 5.0 0.00 0.00 0.00 53 1019.4
20260506224706 43 232 7.0 7.0 0.00 0.00 0.00 53 1019.6
20260506222706 43 244 5.0 5.0 0.00 0.00 0.00 54 1019.7
20260506220706 43 296 4.0 4.0 0.00 0.00 0.00 54 1019.8
20260506214706 43 249 7.0 7.0 0.00 0.00 0.00 54 1020.0
20260506212706 43 250 7.0 7.0 0.00 0.00 0.00 54 1020.1
20260506210706 43 230 6.0 6.0 0.00 0.00 0.00 54 1020.1
20260506204706 43 243 6.0 6.0 0.00 0.00 0.00 54 1020.2
20260506202706 43 226 7.0 7.0 0.00 0.00 0.00 53 1020.2
20260506200706 42 224 5.0 5.0 0.00 0.00 0.00 54 1020.3
20260506194706 42 262 4.0 4.0 0.00 0.00 0.00 54 1020.3
20260506192706 42 250 8.0 8.0 0.00 0.00 0.00 54 1020.5
20260506190706 42 321 4.0 4.0 0.00 0.00 0.00 55 1020.5
20260506184706 41 248 6.0 6.0 0.00 0.00 0.00 56 1020.6
20260506182706 42 218 5.0 5.0 0.00 0.00 0.00 56 1020.6
20260506180706 41 255 7.0 7.0 0.00 0.00 0.00 56 1020.7
20260506174706 40 252 4.0 4.0 0.00 0.00 0.00 57 1020.8
20260506172706 41 332 3.0 3.0 0.00 0.00 0.00 57 1020.8
20260506170705 40 239 6.0 6.0 0.00 0.00 0.00 58 1021.1
20260506164705 40 302 5.0 5.0 0.00 0.00 0.00 60 1021.1
20260506162705 39 308 4.0 4.0 0.00 0.00 0.00 61 1021.2
20260506160705 39 244 8.0 8.0 0.00 0.00 0.00 62 1021.2
20260506154705 39 264 7.0 7.0 0.00 0.00 0.00 63 1021.1
20260506152705 38 296 5.0 5.0 0.00 0.00 0.00 63 1021.1
20260506150706 38 275 4.0 4.0 0.00 0.00 0.00 65 1021.2
20260506144705 38 294 4.0 4.0 0.00 0.00 0.00 66 1021.0
20260506142705 38 325 3.0 3.0 0.00 0.00 0.00 66 1020.9
20260506140705 38 268 4.0 4.0 0.00 0.00 0.00 66 1020.8
20260506134705 38 252 4.0 4.0 0.00 0.00 0.00 68 1020.6
20260506132705 38 277 2.0 2.0 0.00 0.00 0.00 68 1020.4
20260506130705 37 279 5.0 5.0 0.00 0.00 0.00 68 1020.3
20260506124705 37 250 4.0 4.0 0.00 0.00 0.00 68 1020.4
20260506122705 37 258 3.0 3.0 0.00 0.00 0.00 69 1020.0
20260506120705 37 264 3.0 3.0 0.00 0.00 0.00 70 1019.9
20260506114705 37 4 1.0 1.0 0.00 0.00 0.00 68 1019.8
20260506112705 36 355 3.0 3.0 0.00 0.00 0.00 69 1019.7
20260506110705 37 1 2.0 2.0 0.00 0.00 0.00 72 1019.4
20260506104705 36 338 2.0 2.0 0.00 0.00 0.00 71 1019.1
20260506102705 36 354 2.0 2.0 0.00 0.00 0.00 70 1019.0
20260506100705 36 247 3.0 3.0 0.00 0.00 0.00 70 1019.1
20260506094705 37 254 3.0 3.0 0.00 0.00 0.00 71 1019.0